(193) Ambrosia
ephemeris date magn radius delta ra dec elong phase
Today27 Jun 202615.42.941 AU2.815 AU11h56m-07°04'86.9°20.2°
Opposition3 Jun 202714.73.373 AU2.390 AU16h33m-39°05'163.1°5.0°
(193) Ambrosia - 2026-06-27
astro.vanbuitenen.nl


 
-1 year
-1 month
-1 day
Now
+1 day
+1 month
+1 year

The interactive orbit chart above shows the body's path through the solar system and its position at the given date. Green and blue lines are shown perpendicular to the ecliptic plane: Green if the path is above the ecliptic plane, blue if it is below. (Left-click and drag to rotate the view; Right-click and drag to move the view; Use scroll wheel to zoom in our out.)

The orbital elements of Ambrosia are:

            e (Eccentricity)                : 0.2983284
            a (Semimajor axis)              : 2.5981331
            i (Inclination)                 : 11.99719
            Ω (Longitude of ascending node) : 349.46588
            ω (Argument of perihelion)      : 82.50055
            M (Mean anomaly)                : 96.71027
            Epoch                           : 2026 Jun 09

            L (Longitude of perihelion)     : 71.80094
            B (Latitude of perihelion)      : 11.89306
            P (Orbital period in years)     : 4.19            
        

The light curve chart below shows the estimated development of the minor planet's magnitude.


The all-sky chart below shows the path of the minor planet over the same period as the light curve. The current position is marked yellow.





The following chart shows the path of the minor planet in the next few days. The field of view is optimized for (~10x50) binoculars and finderscopes.




Ephemerides:
Date       Time       RA (2000)    DEC (2000)    delta   radius  elong  phase   PA    magn
2026-06-27 00:00 UT   11 56 09.2   -07 04 08     2.815    2.941   86.9   20.2   114   15.4 
2026-06-27 02:09 UT   11 56 13.2   -07 04 34     2.816    2.941   86.9   20.2   114   15.4 
2026-06-28 00:00 UT   11 56 54.7   -07 08 59     2.831    2.944   86.2   20.2   114   15.4 
2026-06-29 00:00 UT   11 57 41.0   -07 13 54     2.847    2.946   85.5   20.1   114   15.4 
2026-06-30 00:00 UT   11 58 28.0   -07 18 53     2.863    2.949   84.7   20.1   114   15.4 
2026-07-01 00:00 UT   11 59 15.6   -07 23 57     2.879    2.951   84.0   20.0   114   15.4 
2026-07-02 00:00 UT   12 00 04.0   -07 29 05     2.895    2.954   83.3   20.0   114   15.4 
2026-07-03 00:00 UT   12 00 53.0   -07 34 17     2.911    2.956   82.5   19.9   115   15.4 
2026-07-04 00:00 UT   12 01 42.6   -07 39 33     2.927    2.959   81.8   19.9   115   15.5 
2026-07-05 00:00 UT   12 02 32.9   -07 44 53     2.943    2.961   81.1   19.8   115   15.5 
2026-07-06 00:00 UT   12 03 23.8   -07 50 18     2.959    2.964   80.4   19.8   115   15.5 
2026-07-07 00:00 UT   12 04 15.4   -07 55 46     2.975    2.966   79.7   19.7   115   15.5 
2026-07-08 00:00 UT   12 05 07.6   -08 01 19     2.991    2.969   79.0   19.6   115   15.5 
2026-07-09 00:00 UT   12 06 00.3   -08 06 55     3.006    2.971   78.2   19.6   115   15.5 
2026-07-10 00:00 UT   12 06 53.7   -08 12 35     3.022    2.973   77.5   19.5   115   15.5 
2026-07-11 00:00 UT   12 07 47.7   -08 18 19     3.038    2.976   76.8   19.4   115   15.5 
2026-07-12 00:00 UT   12 08 42.2   -08 24 07     3.054    2.978   76.1   19.4   115   15.5 
2026-07-13 00:00 UT   12 09 37.3   -08 29 58     3.069    2.981   75.4   19.3   115   15.6 
2026-07-14 00:00 UT   12 10 33.0   -08 35 53     3.085    2.983   74.7   19.2   115   15.6 
2026-07-15 00:00 UT   12 11 29.2   -08 41 52     3.101    2.986   74.0   19.1   116   15.6 
2026-07-16 00:00 UT   12 12 26.0   -08 47 54     3.116    2.988   73.3   19.0   116   15.6 
2026-07-17 00:00 UT   12 13 23.3   -08 53 60     3.132    2.990   72.7   18.9   116   15.6 
2026-07-18 00:00 UT   12 14 21.1   -09 00 09     3.147    2.993   72.0   18.8   116   15.6 
2026-07-19 00:00 UT   12 15 19.4   -09 06 21     3.162    2.995   71.3   18.7   116   15.6 
2026-07-20 00:00 UT   12 16 18.2   -09 12 36     3.178    2.997   70.6   18.6   116   15.6 
2026-07-21 00:00 UT   12 17 17.5   -09 18 55     3.193    3.000   69.9   18.5   116   15.6 
2026-07-22 00:00 UT   12 18 17.3   -09 25 17     3.208    3.002   69.2   18.4   116   15.6 
2026-07-23 00:00 UT   12 19 17.6   -09 31 41     3.223    3.005   68.6   18.3   116   15.6 
2026-07-24 00:00 UT   12 20 18.3   -09 38 09     3.238    3.007   67.9   18.2   116   15.7 
2026-07-25 00:00 UT   12 21 19.5   -09 44 40     3.253    3.009   67.2   18.1   116   15.7 
2026-07-26 00:00 UT   12 22 21.1   -09 51 13     3.268    3.012   66.5   18.0   116   15.7 
2026-07-27 00:00 UT   12 23 23.2   -09 57 49     3.283    3.014   65.9   17.9   117   15.7 


    Terminology:
            
    delta:  distance between minor planet and earth in AU
    radius: distance between minor planet and sun in AU
    magn:   magnitude (brightness) estimate    
    ra:     right ascension in hours (24h = 360deg)
    dec:    declination in degrees
    elong:  elongation in degrees (angle sun-earth-minor planet)    
    phase:  phase angle in degrees (angle sun-minor planet-earth)        
    AU:     Astronomical Unit (mean distance between earth and sun: 149597870.7 km
    

Orbital elements provided by the MPC (Minor Planet Center).
Calculations by a modified version of AAPlus, a C# implementation of the AA+ project by PJ Naughter from the algorithms presented in the book "Astronomical Algorithms" by Jean Meeus.
NGC2000 dso catalog and star labels from VizieR as provided by the Strasbourg astronomical Data Center.
Tycho2 catalog from the ESO archive.